Wind_Speed
22 22 22 22 22 21 21 20 21 20 20 19 19 19 18 19 20 21 21 21 21 22 22 22 23 23 24 25 25 25 25 24 24 24 24 24 24 24 24 23 24 24 25 24
22 22 22 22 20 20 20 20 20 20 19 18 19 19 19 20 21 20 20 20 21 21 22 22 23 24 24 25 26 26 26 26 25 25 25 25 25 25 25 25 24 25 25 25
23 23 23 21 20 20 20 20 20 20 19 19 19 19 20 20 20 20 21 21 21 21 22 23 23 24 25 26 26 27 26 26 26 26 25 25 26 25 25 25 25 25 24 24
23 23 24 21 20 20 20 20 20 21 21 21 21 21 21 21 21 22 23 23 23 23 23 24 24 25 26 27 27 27 27 27 27 26 26 26 26 26 25 24 25 25 24 24
25 25 24 23 22 22 22 21 20 21 22 22 22 22 22 22 22 23 24 24 24 25 25 25 25 26 26 27 28 28 28 27 27 26 26 27 26 26 25 25 25 25 24 23
25 25 25 24 23 23 24 23 22 22 22 22 23 23 23 23 23 24 24 25 25 26 26 26 26 26 27 28 27 28 28 28 27 27 26 26 26 26 25 25 25 25 23 23
25 25 24 23 23 24 24 24 24 24 23 24 24 24 24 24 25 25 26 26 26 26 26 26 26 26 27 28 28 28 28 28 28 27 27 26 26 26 25 24 24 23 23 22
24 25 24 24 24 24 24 24 24 25 25 24 24 24 24 25 25 25 26 25 26 27 27 28 27 27 27 28 28 28 28 28 28 27 27 27 26 26 25 24 22 22 22 22
25 24 25 25 24 25 25 25 25 25 26 26 26 25 25 25 25 26 26 26 26 27 28 28 27 27 28 28 28 28 28 28 28 27 28 27 26 25 24 23 23 23 22 22
26 26 26 26 27 26 26 26 26 26 26 27 27 26 26 26 26 27 26 26 27 27 27 27 26 26 27 28 27 27 28 28 29 28 28 27 26 25 24 24 23 23 22 21
27 27 27 27 28 28 27 27 27 27 27 27 27 26 26 27 27 27 27 27 27 27 27 26 26 27 28 28 27 28 29 29 29 28 28 27 26 25 24 23 23 22 22 22
28 28 28 28 28 28 29 29 29 28 28 28 27 27 26 26 27 27 27 27 26 26 26 27 26 27 27 28 29 29 29 28 28 28 27 26 25 24 24 23 23 23 22 21
30 30 29 28 29 28 28 28 28 28 27 27 27 27 26 26 26 26 26 26 26 26 27 27 28 28 28 29 29 29 28 28 27 27 26 26 25 25 24 23 23 23 21 20
31 31 30 29 29 29 28 28 28 27 27 26 26 26 26 26 26 27 27 27 27 27 28 28 29 29 29 29 28 28 28 27 27 26 26 26 26 25 24 23 22 22 21 20
30 31 30 29 29 28 27 27 27 26 27 27 27 27 27 27 26 27 27 27 27 28 29 29 29 29 29 29 28 28 28 27 27 27 27 26 26 25 24 22 22 21 20 20
30 31 30 30 28 27 27 28 27 26 26 27 28 29 28 28 27 27 27 27 28 28 29 29 29 29 29 28 28 28 27 27 27 27 27 26 26 25 23 22 21 20 19 19
30 29 29 28 28 28 27 27 27 26 27 28 28 28 28 28 27 27 27 27 27 28 28 29 29 28 28 27 27 27 26 26 26 26 26 26 25 24 22 21 20 19 19 18
29 29 28 28 28 28 28 28 28 28 28 28 28 28 27 27 27 27 26 26 27 27 28 28 28 28 27 27 27 26 26 26 26 26 26 26 24 23 21 20 19 19 19 19
28 28 28 28 28 29 29 29 29 29 29 29 29 27 26 26 26 26 26 27 27 28 28 27 27 27 27 27 26 26 26 26 25 25 24 23 22 21 20 20 19 20 19 19
28 29 28 28 28 29 29 29 29 30 30 29 28 27 26 26 26 26 27 27 27 28 27 26 26 26 26 26 26 25 25 25 24 23 22 22 21 20 19 18 18 18 18 18
28 28 28 28 29 29 30 30 30 30 29 28 27 27 26 26 27 27 27 26 26 26 26 26 26 26 25 24 24 24 24 23 22 21 21 20 20 20 19 17 17 17 17 17
28 29 29 29 30 30 30 30 30 30 29 28 28 28 28 27 27 27 27 26 26 26 26 26 26 25 25 24 24 24 23 23 22 22 21 20 20 19 18 17 16 16 16 16
28 28 29 29 29 29 29 30 30 29 29 29 29 29 28 28 28 28 27 26 26 26 26 26 25 25 25 25 24 24 23 23 22 22 21 21 20 19 18 18 18 17 17 17
27 28 28 28 28 28 28 28 29 28 28 28 28 29 29 28 28 28 27 26 26 26 26 25 25 26 26 25 25 24 23 23 22 22 22 21 21 20 19 19 18 18 17 17
25 25 26 26 27 27 28 28 28 28 28 29 29 29 29 28 27 27 27 27 27 26 26 27 27 26 26 25 25 24 24 23 21 21 21 21 20 19 19 18 17 17 17 17
25 25 26 26 27 28 28 28 29 29 29 29 29 29 28 27 28 28 27 27 27 27 26 26 26 27 26 25 25 24 23 22 21 21 21 20 20 19 18 17 17 16 17 18
25 26 27 28 28 29 29 29 29 29 29 29 29 29 29 29 28 28 27 26 26 26 26 26 26 26 25 24 24 23 22 21 21 20 20 19 19 18 18 17 17 17 17 17
Wind_Direction
272 275 276 276 280 281 280 280 282 285 286 288 293 294 294 296 296 298 298 298 297 299 303 303 305 308 308 310 312 311 312 312 312 312 310 309 309 308 307 305 303 302 301 298
272 274 275 275 277 278 280 282 283 284 287 290 292 291 292 294 296 298 297 296 296 298 302 306 307 307 309 309 311 312 313 313 311 311 311 311 311 309 307 304 302 301 300 298
273 275 274 273 277 278 280 281 285 288 289 290 292 292 292 293 295 298 297 298 298 299 302 307 308 309 309 310 312 311 310 311 312 312 312 312 311 311 308 305 303 302 302 300
273 273 271 276 277 279 281 282 285 287 288 290 291 292 294 294 295 296 297 298 299 302 305 306 308 310 311 311 312 312 312 312 312 312 311 311 312 312 309 307 305 304 302 301
274 273 272 273 276 278 280 281 283 285 285 287 289 291 294 296 296 298 298 298 300 302 303 304 306 308 310 312 313 313 313 312 312 312 311 311 311 310 309 307 306 305 303 301
272 274 273 274 274 275 276 279 282 283 284 284 287 290 292 293 294 297 298 299 300 300 301 302 303 306 308 311 312 312 312 312 312 311 311 311 310 309 309 307 306 305 304 302
272 273 275 275 275 277 277 281 282 284 286 286 288 289 290 291 292 294 296 298 299 299 300 302 303 304 307 310 310 310 311 311 312 311 310 310 307 307 307 307 307 305 305 303
269 270 273 275 275 276 279 281 282 283 286 287 287 288 289 291 292 294 296 298 299 300 300 302 303 304 306 308 310 310 310 310 311 311 311 309 307 306 306 306 306 306 305 304
267 270 272 273 275 275 277 280 281 283 285 287 288 288 290 291 292 295 296 297 299 300 301 303 303 305 307 308 309 310 311 311 312 312 311 310 309 309 309 308 306 306 304 301
266 267 269 270 271 274 276 278 281 283 285 285 286 286 288 289 290 292 295 297 298 299 300 301 302 305 308 309 309 311 312 312 312 312 312 312 310 310 310 308 307 307 306 303
264 266 267 267 269 272 275 278 279 280 282 283 285 285 286 288 290 292 293 295 297 298 299 301 303 306 308 309 309 311 312 312 312 312 313 313 311 310 309 308 308 307 305 304
264 265 267 268 270 273 274 275 277 279 280 281 283 285 286 287 289 290 291 294 296 298 300 302 304 306 307 308 309 311 312 313 313 313 313 312 312 310 308 307 307 306 305 303
264 265 268 270 271 272 273 276 277 278 279 281 283 285 286 287 289 289 291 293 294 297 299 301 303 305 307 308 309 310 311 312 312 312 311 311 311 309 308 306 306 305 304 302
265 266 268 269 271 273 274 276 278 278 279 281 283 285 286 288 289 289 290 291 293 296 299 301 303 304 305 307 307 308 309 310 311 311 310 310 310 308 307 305 304 303 302 302
264 265 267 269 270 272 273 275 277 278 278 278 281 284 286 288 289 290 291 291 293 297 300 301 302 303 303 305 305 306 307 308 309 310 310 310 310 308 305 303 304 303 300 301
265 267 269 270 270 268 270 272 274 276 277 279 281 283 285 287 289 290 291 292 295 298 300 301 302 302 303 303 304 305 306 306 306 307 308 308 309 307 304 302 302 301 299 299
264 265 266 266 267 268 271 273 275 277 279 281 283 285 287 288 288 288 290 293 295 297 299 301 301 301 301 301 302 304 304 304 306 306 306 307 308 306 304 303 302 300 298 298
262 264 266 267 266 268 271 273 276 280 284 286 286 287 287 287 288 289 291 293 295 297 299 300 300 300 300 300 302 303 302 303 304 305 306 306 306 304 302 301 301 300 298 298
265 267 268 270 271 270 272 274 276 279 282 284 285 285 285 286 287 288 290 293 295 296 297 298 299 298 299 300 301 301 302 304 305 305 306 306 306 304 301 300 300 300 301 300
266 266 266 269 271 273 272 273 275 278 280 282 281 280 281 284 286 288 289 291 293 295 296 297 297 298 299 300 301 302 304 305 305 305 305 306 306 305 302 301 301 302 303 304
264 265 267 269 271 273 273 273 274 275 278 279 278 279 282 284 286 287 288 289 291 293 294 296 297 297 298 300 302 302 303 304 304 303 304 305 306 306 305 303 302 301 303 305
266 266 268 271 273 273 274 275 274 274 276 276 277 279 281 283 284 285 287 289 290 291 292 294 296 296 296 299 300 301 301 301 301 301 302 301 303 303 303 302 303 302 303 305
267 267 269 271 272 272 274 275 275 274 274 274 275 277 279 280 281 283 285 286 289 290 291 292 293 294 295 297 298 298 298 298 297 298 299 298 299 298 298 299 300 300 299 301
270 271 271 272 272 273 273 273 273 273 272 272 274 276 278 278 280 282 283 285 286 287 288 289 290 292 294 295 295 295 295 296 295 295 295 296 297 295 294 294 295 296 297 300
272 272 273 275 275 275 275 273 273 274 273 272 273 275 275 276 279 282 283 284 285 285 285 286 288 289 291 292 292 293 293 294 294 294 293 294 296 296 294 291 291 292 294 299
274 275 277 277 277 277 276 275 274 274 273 274 275 275 275 275 278 280 283 284 283 283 284 286 287 288 289 289 290 291 291 291 291 292 292 292 291 293 294 291 290 289 292 296
277 277 277 277 277 277 277 277 276 276 276 276 276 275 275 276 278 279 280 281 282 283 284 286 288 288 288 288 289 290 289 289 290 291 290 289 290 291 292 292 291 289 291 294
Height
5807 5807 5806 5806 5806 5805 5804 5803 5802 5801 5801 5800 5799 5798 5797 5796 5794 5792 5790 5788 5786 5783 5781 5778 5775 5772 5769 5765 5762 5759 5756 5752 5749 5746 5742 5739 5735 5732 5729 5727 5724 5721 5718 5715
5802 5802 5801 5801 5801 5800 5799 5798 5798 5797 5796 5796 5794 5793 5792 5791 5789 5787 5785 5783 5781 5779 5776 5773 5770 5767 5764 5760 5757 5754 5750 5747 5743 5740 5737 5733 5730 5727 5724 5721 5718 5714 5711 5708
5797 5796 5796 5796 5797 5796 5795 5795 5794 5793 5793 5791 5790 5788 5787 5785 5784 5782 5780 5778 5776 5773 5771 5768 5765 5762 5759 5755 5752 5748 5744 5741 5738 5734 5731 5728 5724 5721 5717 5714 5711 5708 5705 5702
5791 5791 5790 5794 5792 5791 5791 5790 5789 5788 5787 5786 5785 5783 5782 5780 5778 5777 5775 5773 5771 5768 5765 5762 5759 5756 5753 5750 5746 5742 5739 5735 5732 5729 5726 5722 5718 5715 5711 5708 5705 5702 5699 5696
5785 5784 5785 5787 5787 5786 5786 5785 5785 5783 5782 5781 5780 5778 5777 5775 5773 5772 5770 5768 5765 5763 5760 5757 5754 5751 5748 5745 5741 5737 5734 5730 5727 5723 5720 5716 5712 5709 5706 5702 5699 5696 5693 5690
5779 5778 5779 5782 5781 5780 5780 5780 5779 5778 5776 5775 5774 5773 5772 5770 5768 5766 5764 5762 5760 5757 5754 5752 5749 5746 5743 5739 5736 5732 5729 5725 5721 5718 5714 5710 5707 5703 5700 5696 5693 5690 5687 5684
5773 5772 5773 5774 5774 5774 5775 5775 5773 5772 5771 5770 5768 5768 5766 5764 5762 5760 5758 5756 5753 5751 5748 5745 5743 5740 5737 5734 5730 5726 5723 5719 5716 5712 5708 5705 5701 5698 5694 5690 5687 5684 5681 5678
5767 5767 5769 5768 5768 5768 5768 5767 5766 5765 5764 5763 5762 5760 5759 5758 5756 5754 5752 5750 5747 5744 5742 5739 5736 5733 5730 5727 5724 5720 5716 5713 5709 5706 5702 5698 5695 5692 5688 5684 5681 5678 5675 5672
5761 5763 5762 5761 5761 5761 5761 5760 5760 5759 5758 5757 5756 5754 5753 5751 5750 5748 5745 5743 5741 5738 5735 5732 5730 5727 5724 5721 5717 5714 5710 5706 5703 5699 5695 5692 5688 5685 5682 5678 5675 5672 5670 5667
5753 5754 5754 5754 5753 5754 5754 5753 5753 5752 5751 5750 5749 5748 5747 5745 5743 5741 5739 5736 5734 5731 5729 5726 5724 5721 5717 5714 5711 5707 5704 5700 5696 5693 5689 5685 5682 5678 5675 5672 5669 5667 5664 5661
5745 5746 5746 5746 5746 5746 5746 5746 5746 5745 5744 5743 5742 5741 5739 5738 5736 5734 5732 5730 5727 5725 5722 5720 5717 5714 5711 5708 5704 5701 5698 5694 5690 5686 5682 5679 5675 5672 5669 5666 5663 5661 5658 5656
5738 5738 5739 5739 5739 5739 5739 5739 5738 5738 5737 5736 5735 5733 5732 5730 5729 5727 5725 5723 5720 5718 5716 5713 5710 5707 5704 5701 5698 5695 5691 5687 5683 5680 5677 5673 5670 5666 5663 5660 5658 5655 5652 5650
5729 5730 5731 5731 5731 5731 5731 5730 5730 5729 5729 5728 5727 5726 5724 5723 5721 5719 5718 5715 5713 5711 5709 5706 5704 5701 5698 5694 5691 5688 5684 5681 5677 5674 5670 5667 5664 5661 5658 5655 5652 5649 5646 5644
5721 5722 5722 5723 5723 5723 5723 5722 5722 5721 5721 5720 5719 5718 5717 5716 5714 5712 5710 5708 5706 5704 5702 5699 5696 5693 5690 5687 5684 5681 5677 5674 5671 5667 5664 5661 5657 5654 5651 5648 5646 5643 5640 5638
5712 5713 5714 5714 5715 5715 5715 5714 5714 5714 5713 5712 5711 5711 5710 5708 5707 5705 5703 5701 5699 5697 5694 5692 5689 5686 5683 5680 5676 5673 5670 5667 5664 5660 5657 5654 5650 5647 5644 5641 5639 5636 5634 5632
5704 5705 5705 5706 5706 5707 5707 5706 5706 5706 5705 5704 5704 5703 5701 5700 5699 5697 5695 5693 5691 5689 5686 5684 5681 5678 5675 5672 5669 5666 5663 5660 5657 5654 5650 5647 5643 5640 5637 5635 5632 5630 5628 5626
5696 5696 5697 5697 5698 5698 5698 5698 5698 5697 5697 5696 5695 5694 5693 5692 5691 5689 5687 5685 5683 5681 5679 5676 5673 5670 5667 5664 5661 5658 5655 5653 5650 5646 5643 5640 5637 5633 5631 5628 5626 5624 5622 5620
5687 5688 5688 5689 5689 5690 5690 5690 5690 5689 5689 5687 5686 5686 5685 5683 5682 5681 5679 5677 5675 5673 5670 5668 5665 5662 5659 5656 5654 5651 5648 5645 5643 5640 5636 5633 5630 5627 5625 5622 5620 5618 5616 5614
5679 5679 5680 5680 5680 5681 5681 5681 5681 5681 5680 5679 5678 5677 5676 5675 5674 5672 5671 5669 5667 5665 5663 5660 5657 5654 5651 5649 5646 5644 5641 5638 5636 5633 5630 5627 5624 5621 5619 5616 5614 5612 5610 5608
5671 5671 5672 5672 5672 5672 5672 5673 5673 5672 5671 5671 5670 5668 5667 5666 5665 5664 5662 5661 5659 5657 5655 5652 5649 5647 5644 5642 5639 5637 5634 5632 5629 5627 5624 5621 5618 5616 5613 5611 5609 5607 5605 5603
5663 5664 5664 5664 5664 5664 5664 5664 5664 5663 5663 5662 5661 5660 5659 5658 5657 5656 5654 5653 5651 5649 5647 5645 5642 5640 5637 5635 5632 5630 5627 5625 5623 5621 5618 5616 5613 5610 5608 5606 5604 5602 5600 5598
5655 5655 5655 5655 5655 5655 5655 5654 5654 5654 5654 5653 5653 5652 5651 5650 5649 5648 5646 5645 5643 5641 5639 5637 5635 5633 5630 5628 5626 5624 5621 5619 5617 5615 5613 5610 5608 5605 5603 5601 5599 5597 5596 5594
5646 5646 5646 5646 5646 5646 5646 5645 5645 5645 5645 5644 5644 5643 5642 5641 5640 5639 5638 5636 5635 5633 5631 5630 5628 5626 5623 5621 5619 5617 5614 5612 5610 5608 5606 5604 5602 5600 5598 5596 5594 5592 5591 5589
5638 5638 5638 5637 5637 5637 5637 5637 5636 5636 5636 5635 5635 5634 5633 5632 5631 5630 5629 5628 5626 5625 5623 5622 5620 5618 5616 5614 5612 5610 5607 5605 5603 5601 5600 5598 5596 5594 5592 5590 5588 5587 5585 5583
5630 5629 5629 5629 5629 5628 5628 5627 5627 5627 5626 5626 5625 5625 5624 5623 5622 5621 5620 5619 5618 5616 5615 5613 5612 5610 5608 5606 5604 5602 5600 5598 5596 5594 5593 5591 5589 5587 5586 5584 5582 5581 5580 5578
5622 5621 5621 5620 5620 5619 5618 5618 5618 5617 5617 5616 5616 5615 5614 5614 5613 5613 5611 5610 5609 5608 5607 5605 5603 5602 5600 5598 5597 5595 5593 5591 5589 5588 5586 5585 5583 5581 5580 5578 5577 5576 5574 5572
5614 5613 5612 5611 5611 5610 5609 5609 5608 5607 5607 5607 5606 5606 5605 5605 5604 5603 5603 5602 5600 5599 5598 5597 5595 5593 5592 5590 5589 5587 5585 5584 5582 5581 5579 5578 5577 5575 5574 5572 5571 5570 5569 5567